STARLINK-35872, 66580

Orbit data source: Space-Track

STARLINK-35872, 66580 is a payload satellite owned by SpaceX/Seattle (US) in LEO that was launched on Fri, 21 Nov 2025 UTC via an FALCON 9 launch vehicle from the Air Force Eastern Test Range (AFETR). Payload-class satellites include a variety of spacecraft equipped with specific instruments for various scientific and technological missions. These include communications satellites like Starlink; space stations such as the ISS; scientific satellites like the Hubble; Earth observation satellites from companies like Planet Labs, Umbra, and HawkEye 360; GPS; miniature CubeSats for education and research; and military/defense satellites.

Loading next visibility...
Identifier
66580, 2025-268Z
Orbit
LEO
Country
Flag of USUS
Related business
Manufacturer
SpaceX/Seattle
Mission
Operational Commercial Communications
Bus & Motor
STARLINK V2MO, Unknown motor
Mass
575 kg wet, ~530 kg dry
Launch date (UTC)
2025-11-21 (7 months ago)
Launch vehicle
FALCON 9
Launch site
Air Force Eastern Test Range (AFETR)
Object type
Payload
Rocket body
Debris
Shape & HBR
Box + 2 Pan, 17.7 m
Radar Cross Section
36.964 m², Large (>1 m²)

Expand to show TLE details & history
Last TLE update: 15 hours ago

TLE from 15 hours ago
0 STARLINK-35872
1 66580U 25268Z   26171.23070624  .00010197  00000-0  37945-3 0  9998
2 66580  42.9974 127.8294 0001387 273.5477  86.5216 15.27589880 33646
Epoch: 2026-06-20T05:32Z
TLE epoch observation values (Epoch: 2026-06-20T05:32:13.019Z)
Latitude
Longitude
136.32685°
Altitude
482.737 km
Speed
7.626 km/s
True Right ascension
08h 31m 19s
True Declination
0° 00' 00"
Sunlit
Object was in daylight at epoch
Visualization orbit readout
Latitude
Unknown
Longitude
Unknown
Altitude
Unknown
Speed
Unknown
Apparent Right ascension
Unknown
Apparent Declination
Unknown
Sunlit
N/A
Visualization observer readout
Local Sidereal Time
07:12:17
Azimuth
Unknown
Elevation
Unknown
Doppler factor
Unknown
Orbital elements
Apogee altitude
485.917 km
Perigee altitude
484.013 km
Semi-major axis
6,863.102 km
Eccentricity
0.00014
Inclination
42.9974°
RAAN
127.8294°
Arg. of periapsis
273.5477°
True anomaly
86.53746°
Mean anomaly
86.5216°
Eccentric anomaly
86.52953°
Mean motion
3.81735 °/min
Orbital period
94.31 mins
BSTAR
0.00037945
Loading maneuver chart data...
Computing Atmospheric mass density...
Loading historical data...
Loading historical data...
Loading historical data...
Loading historical data...
Loading historical data...
Loading historical data...
Loading historical data...

Documentation

Showing up to 5 results
|